Weather Roundup
Issued by NWS Chicago, IL

Home | Current Version | Previous Version | Graphics & Text | Print | Product List | Glossary On
Versions: 1 2 3 4 5 6 7 8 9 10 11 12 13 14 15 16 17 18 19 20 21 22 23 24 25 26 27 28 29 30 31 32 33 34 35 36 37 38 39 40 41 42 43 44 45 46 47 48 49 50
000
NZUS59 KLOT 291308
HRRLOT

CHICAGO AREA WEATHER ROUNDUP
NATIONAL WEATHER SERVICE CHICAGO/ROMEOVILLE IL
800 AM CDT SUN MAR 29 2015

NOTE: "FAIR" INDICATES FEW OR NO CLOUDS BELOW 12,000 FEET WITH NO
SIGNIFICANT WEATHER AND/OR OBSTRUCTIONS TO VISIBILITY.

* THESE STATIONS ARE NOT UNDER NWS QUALITY CONTROL. THEY ALSO MAY NOT
  REPORT WEATHER SUCH AS PRECIPITATION OR FOG.

ILZ005-006-012>014-019>023-291400-
NORTHEAST ILLINOIS

CITY           SKY/WX    TMP DP  RH WIND       PRES   REMARKS
OHARE          PTSUNNY   32  16  51 S18G29    30.11F WCI  20
MIDWAY         PTSUNNY   32  17  54 S15G26    30.15R WCI  22
AURORA         MOSUNNY   30  19  63 S17       30.11F WCI  18
LANSING*       PTSUNNY   31  17  56 S14       30.18R WCI  21
JOLIET*        SUNNY     35  20  55 S12G17    30.15F WCI  27
WAUKEGAN       PTSUNNY   33  15  47 S14       30.08F WCI  23
DUPAGE AIRPORT MOSUNNY   31  18  58 S17G26    30.10F WCI  19
WHEELING       PTSUNNY   32  15  49 S18G25    30.13F WCI  20
KANKAKEE*      SUNNY     31  20  64 S14       30.20R WCI  21
MORRIS*        MOSUNNY   32  19  59 S15G21    30.14F WCI  22
LEWIS AIRPORT* MOSUNNY   32  19  59 S21       30.13F WCI  20
NORTHERLY IS     N/A     33  15  48 SW18        N/A  WCI  22
$$

WIZ051-052-058>065-066-070>072-291400-
SOUTHEAST WISCONSIN

CITY           SKY/WX    TMP DP  RH WIND       PRES   REMARKS
MILWAUKEE      PTSUNNY   33  15  47 S13       30.05F WCI  24
KENOSHA*       PTSUNNY   34  17  50 S15       30.07F WCI  24
RACINE*        PTSUNNY   34  15  46 S14G22    30.08F WCI  25
BURLINGTON     MOSUNNY   31  16  53 S13G23    30.03F WCI  21
WAUKESHA       SUNNY     30  16  55 S12G23    30.02F WCI  21
WEST BEND      PTSUNNY   32  16  51 S10       29.98F WCI  24
$$

INZ001>003-010>013-019-020-291400-
NORTHWEST INDIANA

CITY           SKY/WX    TMP DP  RH WIND       PRES   REMARKS
GARY*          MOSUNNY   32  12  43 S20       30.19R WCI  20
MICHIGAN CITY* NOT AVBL
RENSSELAER*    NOT AVBL
VALPARAISO     PTSUNNY   29  19  66 S12       30.21R WCI  19
$$

LMZ740>746-291400-
SOUTHERN LAKE MICHIGAN

STATION/POSITION TIME  SKY/WX   TEMP WIND        PRES    VSBY
                                AIR  DIR/SP/G
                 (UTC)          (F)  (DEG/KT/KT) (MB)    (MI)
HARRISON CRIB    1200            31  190/ 22/ 25   N/A
BURNHAM HARBOR   1300            33  180/ 13/ 20   N/A
CALUMET HARBOR   1212            30  170/ 11/ 18 1020.0R
BURNS HARBOR     1240            30  180/ 11/ 22 1022.7R
MICHIGAN CITY    1200            29  150/ 16/ 20   N/A
$$

ABBREVIATIONS USED IN REMARKS
   TC - TEMPERATURE IN CELSIUS
  WCI - WIND CHILL INDEX
   HX - HEAT INDEX
  VSB - VISIBILITY
$$



USA.gov is the U.S. government's official web portal to all federal, state and local government web resources and services.